• In Austria
  • List of Countries
  • For 7 days
  • Water Temperature
  • Satellite Maps
  • Weather Map
  • News
  • Weather Widgets
  • user-avatar
    Login

    Hourly Weather Bad Hall

    Today, 17 July, Tuesday

    Time Temperature Precipitation Wind Pressure Humidity
    00:00 +16°C° 0.2 mm 1 mps 725 mmHg 90%
    01:00 +15°C° 0.2 mm 1 mps 725 mmHg 92%
    02:00 +15°C° 0.1 mm 1 mps 725 mmHg 92%
    03:00 +15°C° 0.1 mm 1 mps 725 mmHg 93%
    04:00 +14°C° 0.1 mm 1 mps 725 mmHg 94%
    05:00 +16°C° 0 mm 2 mps 726 mmHg 92%
    06:00 +17°C° 0 mm 2 mps 726 mmHg 89%
    07:00 +18°C° 0 mm 2 mps 726 mmHg 87%
    08:00 +19°C° 0.5 mm 2 mps 726 mmHg 84%
    09:00 +21°C° 0.5 mm 3 mps 726 mmHg 80%
    10:00 +22°C° 0.5 mm 3 mps 726 mmHg 76%
    11:00 +22°C° 0.7 mm 3 mps 726 mmHg 76%
    12:00 +23°C° 0.7 mm 4 mps 726 mmHg 75%
    13:00 +23°C° 0.7 mm 4 mps 726 mmHg 74%
    14:00 +23°C° 0.5 mm 4 mps 726 mmHg 73%
    15:00 +23°C° 0.5 mm 4 mps 726 mmHg 72%
    16:00 +25°C° 0.5 mm 4 mps 726 mmHg 70%
    17:00 +22°C° 0.5 mm 3 mps 726 mmHg 74%
    18:00 +21°C° 0.5 mm 3 mps 726 mmHg 78%
    19:00 +20°C° 0.5 mm 3 mps 726 mmHg 82%
    20:00 +19°C° 0.4 mm 3 mps 727 mmHg 85%
    21:00 +18°C° 0.4 mm 2 mps 727 mmHg 88%
    22:00 +17°C° 0.4 mm 2 mps 727 mmHg 91%
    23:00 +17°C° 0.2 mm 2 mps 727 mmHg 92%

    Tomorrow, 18 July, Wednesday

    Time Temperature Precipitation Wind Pressure Humidity
    00:00 +16°C° 0.2 mm 2 mps 727 mmHg 92%
    01:00 +16°C° 0.2 mm 2 mps 727 mmHg 93%
    02:00 +16°C° 0.1 mm 2 mps 728 mmHg 93%
    03:00 +16°C° 0.1 mm 2 mps 728 mmHg 93%
    04:00 +15°C° 0.1 mm 2 mps 728 mmHg 93%
    05:00 +17°C° 0.1 mm 2 mps 728 mmHg 91%
    06:00 +18°C° 0.1 mm 2 mps 728 mmHg 89%
    07:00 +19°C° 0.1 mm 2 mps 728 mmHg 87%
    08:00 +21°C° 0.1 mm 3 mps 728 mmHg 79%
    09:00 +22°C° 0.1 mm 3 mps 728 mmHg 71%
    10:00 +25°C° 0.1 mm 4 mps 728 mmHg 62%
    11:00 +26°C° 0.2 mm 4 mps 728 mmHg 60%
    12:00 +26°C° 0.2 mm 4 mps 728 mmHg 57%
    13:00 +27°C° 0.2 mm 4 mps 728 mmHg 54%
    14:00 +27°C° 0.3 mm 3 mps 728 mmHg 58%
    15:00 +27°C° 0.3 mm 3 mps 728 mmHg 61%
    16:00 +26°C° 0.3 mm 3 mps 727 mmHg 65%
    17:00 +25°C° 0.4 mm 2 mps 728 mmHg 71%
    18:00 +24°C° 0.4 mm 2 mps 728 mmHg 78%
    19:00 +22°C° 0.4 mm 1 mps 728 mmHg 84%
    20:00 +21°C° 0.1 mm 1 mps 728 mmHg 86%
    21:00 +20°C° 0.1 mm 1 mps 728 mmHg 87%
    22:00 +19°C° 0.1 mm 1 mps 729 mmHg 89%
    23:00 +19°C° 0 mm 1 mps 729 mmHg 90%

    Day after tomorrow, 19 July, Thursday

    Time Temperature Precipitation Wind Pressure Humidity
    00:00 +19°C° 0 mm 1 mps 729 mmHg 91%
    01:00 +18°C° 0 mm 1 mps 729 mmHg 91%
    02:00 +18°C° 0 mm 1 mps 729 mmHg 92%
    03:00 +18°C° 0 mm 1 mps 729 mmHg 93%
    04:00 +16°C° 0 mm 1 mps 729 mmHg 94%
    05:00 +18°C° 0 mm 1 mps 729 mmHg 91%
    06:00 +20°C° 0 mm 1 mps 729 mmHg 88%
    07:00 +21°C° 0 mm 1 mps 729 mmHg 85%
    08:00 +22°C° 0.2 mm 1 mps 729 mmHg 79%
    09:00 +24°C° 0.2 mm 1 mps 729 mmHg 72%
    10:00 +25°C° 0.2 mm 1 mps 729 mmHg 66%
    11:00 +26°C° 0.1 mm 1 mps 729 mmHg 61%
    12:00 +27°C° 0.1 mm 1 mps 729 mmHg 57%
    13:00 +28°C° 0.1 mm 2 mps 729 mmHg 52%
    14:00 +28°C° 0 mm 2 mps 729 mmHg 53%
    15:00 +28°C° 0 mm 1 mps 729 mmHg 53%
    16:00 +28°C° 0 mm 1 mps 729 mmHg 54%
    17:00 +26°C° 0 mm 1 mps 729 mmHg 61%
    18:00 +25°C° 0 mm 1 mps 728 mmHg 68%
    19:00 +24°C° 0 mm 1 mps 728 mmHg 75%
    20:00 +22°C° 0 mm 1 mps 729 mmHg 79%
    21:00 +21°C° 0 mm 1 mps 729 mmHg 82%
    22:00 +19°C° 0 mm 1 mps 729 mmHg 86%
    23:00 +19°C° 0 mm 1 mps 729 mmHg 87%

    20 July, Friday

    Time Temperature Precipitation Wind Pressure Humidity
    00:00 +18°C° 0 mm 1 mps 729 mmHg 88%
    01:00 +18°C° 0 mm 1 mps 729 mmHg 89%
    02:00 +16°C° 0 mm 1 mps 729 mmHg 89%
    03:00 +16°C° 0 mm 1 mps 729 mmHg 90%
    04:00 +16°C° 0 mm 1 mps 728 mmHg 90%
    05:00 +18°C° 0 mm 1 mps 728 mmHg 85%
    06:00 +20°C° 0 mm 1 mps 729 mmHg 79%
    07:00 +22°C° 0 mm 1 mps 729 mmHg 74%
    08:00 +24°C° 0 mm 1 mps 729 mmHg 67%
    09:00 +25°C° 0 mm 1 mps 729 mmHg 61%
    10:00 +27°C° 0 mm 2 mps 728 mmHg 54%
    11:00 +28°C° 0 mm 2 mps 728 mmHg 51%
    12:00 +29°C° 0 mm 2 mps 728 mmHg 49%
    13:00 +30°C° 0 mm 2 mps 727 mmHg 46%
    14:00 +30°C° 0 mm 2 mps 727 mmHg 47%
    15:00 +30°C° 0 mm 2 mps 727 mmHg 48%
    16:00 +29°C° 0 mm 2 mps 727 mmHg 49%
    17:00 +28°C° 0.1 mm 2 mps 727 mmHg 58%
    18:00 +26°C° 0.1 mm 2 mps 726 mmHg 67%
    19:00 +24°C° 0.1 mm 1 mps 726 mmHg 76%
    20:00 +23°C° 0.3 mm 1 mps 726 mmHg 79%
    21:00 +22°C° 0.3 mm 1 mps 726 mmHg 82%
    22:00 +21°C° 0.3 mm 1 mps 727 mmHg 84%
    23:00 +21°C° 0.2 mm 1 mps 726 mmHg 86%

    21 July, Saturday

    Time Temperature Precipitation Wind Pressure Humidity
    00:00 +20°C° 0.2 mm 1 mps 726 mmHg 87%
    01:00 +20°C° 0.2 mm 1 mps 726 mmHg 89%
    02:00 +20°C° 0.3 mm 1 mps 726 mmHg 89%
    03:00 +19°C° 0.3 mm 1 mps 725 mmHg 90%
    04:00 +19°C° 0.3 mm 1 mps 725 mmHg 91%
    05:00 +20°C° 0.9 mm 1 mps 725 mmHg 91%
    06:00 +18°C° 0.9 mm 0 mps 725 mmHg 91%
    07:00 +19°C° 0.9 mm 0 mps 725 mmHg 91%
    08:00 +21°C° 0.7 mm 1 mps 725 mmHg 90%
    09:00 +22°C° 0.7 mm 1 mps 725 mmHg 90%
    10:00 +22°C° 0.7 mm 1 mps 725 mmHg 89%
    11:00 +22°C° 1 mm 1 mps 725 mmHg 89%
    12:00 +21°C° 1 mm 2 mps 725 mmHg 89%
    13:00 +23°C° 1 mm 2 mps 725 mmHg 90%
    14:00 +21°C° 0.8 mm 2 mps 725 mmHg 90%
    15:00 +21°C° 0.8 mm 2 mps 725 mmHg 91%
    16:00 +20°C° 0.8 mm 3 mps 725 mmHg 92%
    17:00 +20°C° 0.4 mm 2 mps 725 mmHg 92%
    18:00 +20°C° 0.4 mm 2 mps 725 mmHg 92%
    19:00 +19°C° 0.4 mm 2 mps 725 mmHg 93%
    20:00 +19°C° 0.4 mm 2 mps 725 mmHg 93%
    21:00 +18°C° 0.4 mm 2 mps 725 mmHg 94%
    22:00 +18°C° 0.4 mm 2 mps 725 mmHg 94%
    23:00 +18°C° 0.2 mm 1 mps 725 mmHg 94%

    22 July, Sunday

    Time Temperature Precipitation Wind Pressure Humidity
    00:00 +18°C° 0.2 mm 1 mps 725 mmHg 94%
    01:00 +18°C° 0.2 mm 1 mps 725 mmHg 94%
    02:00 +18°C° 0.4 mm 1 mps 725 mmHg 95%
    03:00 +17°C° 0.4 mm 2 mps 725 mmHg 96%
    04:00 +17°C° 0.4 mm 2 mps 725 mmHg 97%
    05:00 +17°C° 0.6 mm 2 mps 725 mmHg 97%
    06:00 +17°C° 0.6 mm 2 mps 726 mmHg 97%
    07:00 +17°C° 0.6 mm 3 mps 726 mmHg 97%
    08:00 +17°C° 0.7 mm 3 mps 726 mmHg 97%
    09:00 +17°C° 0.7 mm 3 mps 726 mmHg 96%
    10:00 +17°C° 0.7 mm 3 mps 726 mmHg 96%
    11:00 +18°C° 0.6 mm 3 mps 726 mmHg 94%
    12:00 +18°C° 0.6 mm 3 mps 726 mmHg 91%
    13:00 +19°C° 0.6 mm 3 mps 726 mmHg 89%
    14:00 +20°C° 0.5 mm 2 mps 726 mmHg 86%
    15:00 +21°C° 0.5 mm 2 mps 727 mmHg 83%
    16:00 +21°C° 0.5 mm 2 mps 727 mmHg 79%
    17:00 +21°C° 0.5 mm 2 mps 727 mmHg 82%
    18:00 +20°C° 0.5 mm 2 mps 727 mmHg 86%
    19:00 +19°C° 0.5 mm 2 mps 727 mmHg 89%
    20:00 +18°C° 0.3 mm 2 mps 728 mmHg 91%
    21:00 +17°C° 0.3 mm 2 mps 728 mmHg 93%
    22:00 +16°C° 0.3 mm 2 mps 728 mmHg 94%
    23:00 +16°C° 0.2 mm 2 mps 728 mmHg 95%
    Show more